| time (UTC) | temp C | wind direction | speed KPH | gust KPH | rain 1hr cm | rain 24hr cm | rain mn cm | humidity % | barometer mb |
| 20260507232139 | 10 | 216 | 4.8 | 14.5 | 0.00 | 0.00 | 0.00 | 78 | 1012.7 |
| 20260507231139 | 10 | 138 | 6.4 | 14.5 | 0.00 | 0.00 | 0.00 | 78 | 1012.7 |
| 20260507230140 | 10 | 159 | 4.8 | 12.9 | 0.00 | 0.00 | 0.00 | 78 | 1012.6 |
| 20260507225139 | 10 | 171 | 3.2 | 9.7 | 0.00 | 0.00 | 0.00 | 78 | 1012.7 |
| 20260507224134 | 10 | 135 | 4.8 | 9.7 | 0.00 | 0.00 | 0.00 | 77 | 1012.6 |
| 20260507223134 | 10 | 225 | 3.2 | 9.7 | 0.00 | 0.00 | 0.00 | 77 | 1012.7 |
| 20260507222136 | 10 | 176 | 4.8 | 11.3 | 0.00 | 0.00 | 0.00 | 76 | 1012.7 |
| 20260507220134 | 11 | 158 | 4.8 | 11.3 | 0.00 | 0.00 | 0.00 | 76 | 1012.7 |
| 20260507214134 | 11 | 150 | 4.8 | 9.7 | 0.00 | 0.00 | 0.00 | 74 | 1012.7 |
| 20260507205130 | 11 | 194 | 3.2 | 8.0 | 0.00 | 0.00 | 0.00 | 72 | 1012.8 |
| 20260507204130 | 11 | 165 | 3.2 | 9.7 | 0.00 | 0.00 | 0.00 | 72 | 1012.8 |
| 20260507203129 | 11 | 184 | 3.2 | 11.3 | 0.00 | 0.00 | 0.00 | 72 | 1012.7 |
| 20260507202131 | 11 | 165 | 3.2 | 9.7 | 0.00 | 0.00 | 0.00 | 71 | 1012.7 |
| 20260507201132 | 11 | 128 | 4.8 | 9.7 | 0.00 | 0.00 | 0.00 | 71 | 1012.6 |
| 20260507200130 | 12 | 212 | 3.2 | 16.1 | 0.00 | 0.00 | 0.00 | 70 | 1012.5 |
| 20260507195130 | 12 | 159 | 6.4 | 16.1 | 0.00 | 0.00 | 0.00 | 70 | 1012.4 |
| 20260507193129 | 12 | 171 | 6.4 | 17.7 | 0.00 | 0.00 | 0.00 | 69 | 1012.2 |
| 20260507192131 | 12 | 196 | 6.4 | 14.5 | 0.00 | 0.00 | 0.00 | 69 | 1012.2 |
| 20260507191130 | 12 | 154 | 6.4 | 14.5 | 0.00 | 0.00 | 0.00 | 70 | 1012.3 |
| 20260507184129 | 12 | 175 | 6.4 | 16.1 | 0.00 | 0.00 | 0.00 | 70 | 1012.3 |
| 20260507182130 | 12 | 177 | 6.4 | 16.1 | 0.00 | 0.00 | 0.00 | 70 | 1012.2 |
| 20260507181124 | 12 | 194 | 6.4 | 16.1 | 0.00 | 0.00 | 0.00 | 70 | 1012.1 |
| 20260507180123 | 12 | 167 | 6.4 | 14.5 | 0.00 | 0.00 | 0.00 | 70 | 1012.2 |
| 20260507173123 | 12 | 176 | 6.4 | 16.1 | 0.00 | 0.00 | 0.00 | 70 | 1012.3 |
| 20260507172123 | 12 | 200 | 8.0 | 19.3 | 0.00 | 0.00 | 0.00 | 70 | 1012.2 |
| 20260507171123 | 12 | 175 | 8.0 | 20.9 | 0.00 | 0.00 | 0.00 | 70 | 1012.1 |
| 20260507170123 | 12 | 148 | 8.0 | 24.1 | 0.00 | 0.00 | 0.00 | 69 | 1012.3 |
| 20260507165123 | 13 | 130 | 8.0 | 20.9 | 0.00 | 0.00 | 0.00 | 67 | 1012.3 |
| 20260507164123 | 13 | 223 | 9.7 | 22.5 | 0.00 | 0.00 | 0.00 | 66 | 1012.3 |
| 20260507163123 | 13 | 182 | 8.0 | 19.3 | 0.00 | 0.00 | 0.00 | 66 | 1012.2 |
| 20260507162125 | 13 | 182 | 8.0 | 19.3 | 0.00 | 0.00 | 0.00 | 67 | 1012.3 |
| 20260507161123 | 13 | 236 | 9.7 | 22.5 | 0.00 | 0.00 | 0.00 | 67 | 1012.3 |
| 20260507160123 | 13 | 179 | 11.3 | 22.5 | 0.00 | 0.00 | 0.00 | 66 | 1012.3 |
| 20260507155123 | 14 | 198 | 9.7 | 19.3 | 0.00 | 0.00 | 0.00 | 63 | 1012.3 |
| 20260507154123 | 14 | 156 | 9.7 | 24.1 | 0.00 | 0.00 | 0.00 | 63 | 1012.4 |
| 20260507153125 | 13 | 188 | 11.3 | 24.1 | 0.00 | 0.00 | 0.00 | 64 | 1012.4 |
| 20260507152123 | 13 | 178 | 11.3 | 22.5 | 0.00 | 0.00 | 0.00 | 63 | 1012.5 |
| 20260507150124 | 14 | 194 | 9.7 | 24.1 | 0.00 | 0.00 | 0.00 | 62 | 1012.5 |
| 20260507145123 | 13 | 156 | 11.3 | 25.7 | 0.00 | 0.00 | 0.00 | 62 | 1012.5 |
| 20260507144123 | 13 | 191 | 9.7 | 25.7 | 0.00 | 0.00 | 0.00 | 63 | 1012.5 |
| 20260507143123 | 13 | 132 | 11.3 | 25.7 | 0.00 | 0.00 | 0.00 | 64 | 1012.6 |
| 20260507142124 | 14 | 210 | 9.7 | 27.4 | 0.00 | 0.00 | 0.00 | 63 | 1012.7 |
| 20260507141118 | 14 | 168 | 8.0 | 19.3 | 0.00 | 0.00 | 0.00 | 65 | 1012.7 |
| 20260507140118 | 13 | 126 | 9.7 | 22.5 | 0.00 | 0.00 | 0.00 | 62 | 1012.7 |
| 20260507135119 | 13 | 226 | 8.0 | 25.7 | 0.00 | 0.00 | 0.00 | 62 | 1012.8 |
| 20260507133119 | 13 | 235 | 9.7 | 22.5 | 0.00 | 0.00 | 0.00 | 61 | 1012.8 |
| 20260507132119 | 14 | 193 | 8.0 | 19.3 | 0.00 | 0.00 | 0.00 | 57 | 1012.8 |
| 20260507131119 | 13 | 186 | 11.3 | 24.1 | 0.00 | 0.00 | 0.00 | 63 | 1012.9 |
| 20260507125119 | 13 | 184 | 9.7 | 19.3 | 0.00 | 0.00 | 0.00 | 63 | 1012.9 |
| 20260507124119 | 13 | 130 | 8.0 | 17.7 | 0.00 | 0.00 | 0.00 | 65 | 1013.0 |
| 20260507123117 | 13 | 212 | 8.0 | 20.9 | 0.00 | 0.00 | 0.00 | 67 | 1013.0 |
| 20260507122117 | 13 | 140 | 8.0 | 20.9 | 0.00 | 0.00 | 0.00 | 69 | 1013.0 |
| 20260507120112 | 12 | 170 | 6.4 | 19.3 | 0.00 | 0.00 | 0.00 | 69 | 1013.2 |
| 20260507114112 | 12 | 123 | 8.0 | 22.5 | 0.00 | 0.00 | 0.00 | 70 | 1013.3 |
| 20260507113118 | 12 | 146 | 6.4 | 22.5 | 0.00 | 0.00 | 0.00 | 72 | 1013.3 |
| 20260507112118 | 12 | 140 | 6.4 | 14.5 | 0.00 | 0.00 | 0.00 | 71 | 1013.3 |
| 20260507110110 | 11 | 163 | 4.8 | 12.9 | 0.00 | 0.00 | 0.00 | 71 | 1013.4 |
| 20260507103111 | 10 | 138 | 3.2 | 8.0 | 0.00 | 0.00 | 0.00 | 74 | 1013.6 |
| 20260507102102 | 10 | 74 | 3.2 | 12.9 | 0.00 | 0.00 | 0.00 | 74 | 1013.6 |
| 20260507101102 | 10 | 131 | 3.2 | 6.4 | 0.00 | 0.00 | 0.00 | 74 | 1013.6 |
| 20260507095103 | 9 | 101 | 1.6 | 4.8 | 0.00 | 0.00 | 0.00 | 76 | 1013.7 |
| 20260507094102 | 9 | 112 | 1.6 | 4.8 | 0.00 | 0.00 | 0.00 | 77 | 1013.6 |
| 20260507093102 | 9 | 80 | 1.6 | 3.2 | 0.00 | 0.00 | 0.00 | 77 | 1013.6 |
| 20260507092103 | 8 | 54 | 0.0 | 4.8 | 0.00 | 0.00 | 0.00 | 78 | 1013.7 |
| 20260507091107 | 8 | 289 | 0.0 | 1.6 | 0.00 | 0.00 | 0.00 | 78 | 1013.7 |
| 20260507085101 | 8 | 289 | 0.0 | 1.6 | 0.00 | 0.00 | 0.00 | 78 | 1013.7 |
| 20260507084103 | 8 | 289 | 0.0 | 3.2 | 0.00 | 0.00 | 0.00 | 78 | 1013.7 |
| 20260507083103 | 8 | 289 | 0.0 | 1.6 | 0.00 | 0.00 | 0.00 | 78 | 1013.8 |
| 20260507082102 | 8 | 289 | 0.0 | 1.6 | 0.00 | 0.00 | 0.00 | 78 | 1013.7 |
| 20260507081103 | 8 | 289 | 0.0 | 1.6 | 0.00 | 0.00 | 0.00 | 77 | 1013.6 |
| 20260507080104 | 8 | 289 | 0.0 | 3.2 | 0.00 | 0.00 | 0.00 | 77 | 1013.6 |
| 20260507075102 | 8 | 289 | 0.0 | 1.6 | 0.00 | 0.00 | 0.00 | 78 | 1013.6 |
| 20260507074103 | 8 | 289 | 0.0 | 1.6 | 0.00 | 0.00 | 0.00 | 77 | 1013.6 |
| 20260507072119 | 7 | 288 | 0.0 | 1.6 | 0.00 | 0.00 | 0.00 | 78 | 1013.6 |
| 20260507071103 | 7 | 288 | 0.0 | 1.6 | 0.00 | 0.00 | 0.00 | 80 | 1013.6 |
| 20260507065103 | 7 | 288 | 1.6 | 3.2 | 0.00 | 0.00 | 0.00 | 80 | 1013.5 |
| 20260507064102 | 7 | 288 | 0.0 | 4.8 | 0.00 | 0.00 | 0.00 | 80 | 1013.5 |
| 20260507063102 | 7 | 162 | 0.0 | 0.0 | 0.00 | 0.00 | 0.00 | 80 | 1013.5 |
| 20260507062102 | 6 | 162 | 0.0 | 1.6 | 0.00 | 0.00 | 0.00 | 82 | 1013.4 |
| 20260507061102 | 6 | 162 | 1.6 | 6.4 | 0.00 | 0.00 | 0.00 | 83 | 1013.3 |
| 20260507060103 | 6 | 301 | 0.0 | 3.2 | 0.00 | 0.00 | 0.00 | 83 | 1013.4 |
| 20260507055103 | 6 | 301 | 1.6 | 4.8 | 0.00 | 0.00 | 0.00 | 84 | 1013.6 |
| 20260507054102 | 6 | 301 | 1.6 | 4.8 | 0.00 | 0.00 | 0.00 | 85 | 1013.6 |
| 20260507053104 | 6 | 301 | 0.0 | 3.2 | 0.00 | 0.00 | 0.00 | 86 | 1013.6 |
| 20260507052102 | 5 | 301 | 1.6 | 3.2 | 0.00 | 0.00 | 0.00 | 87 | 1013.6 |
| 20260507051101 | 5 | 130 | 0.0 | 1.6 | 0.00 | 0.00 | 0.00 | 88 | 1013.6 |
| 20260507050104 | 5 | 130 | 0.0 | 1.6 | 0.00 | 0.00 | 0.00 | 87 | 1013.7 |
| 20260507044104 | 5 | 130 | 0.0 | 1.6 | 0.00 | 0.00 | 0.00 | 83 | 1013.6 |
| 20260507043103 | 5 | 130 | 0.0 | 1.6 | 0.00 | 0.00 | 0.00 | 83 | 1013.6 |
| 20260507042104 | 5 | 130 | 0.0 | 1.6 | 0.00 | 0.00 | 0.00 | 84 | 1013.6 |
| 20260507041103 | 5 | 130 | 0.0 | 3.2 | 0.00 | 0.00 | 0.00 | 84 | 1013.5 |
| 20260507040104 | 5 | 130 | 0.0 | 3.2 | 0.00 | 0.00 | 0.00 | 84 | 1013.7 |
| 20260507035102 | 5 | 130 | 0.0 | 3.2 | 0.00 | 0.00 | 0.00 | 84 | 1013.7 |
| 20260507034103 | 5 | 130 | 0.0 | 0.0 | 0.00 | 0.00 | 0.00 | 84 | 1013.6 |
| 20260507033102 | 5 | 130 | 0.0 | 1.6 | 0.00 | 0.00 | 0.00 | 83 | 1013.7 |
| 20260507032102 | 5 | 130 | 0.0 | 0.0 | 0.00 | 0.00 | 0.00 | 82 | 1013.7 |
| 20260507025103 | 5 | 130 | 0.0 | 0.0 | 0.00 | 0.00 | 0.00 | 80 | 1013.7 |
| 20260507024102 | 5 | 130 | 0.0 | 0.0 | 0.00 | 0.00 | 0.00 | 79 | 1013.7 |
| 20260507022058 | 6 | 130 | 0.0 | 0.0 | 0.00 | 0.00 | 0.00 | 80 | 1013.6 |
| 20260507021058 | 6 | 130 | 0.0 | 0.0 | 0.00 | 0.00 | 0.00 | 79 | 1013.7 |
| 20260507020056 | 6 | 130 | 0.0 | 0.0 | 0.00 | 0.00 | 0.00 | 79 | 1013.7 |
| 20260507015058 | 6 | 130 | 0.0 | 0.0 | 0.00 | 0.00 | 0.00 | 78 | 1013.7 |
| 20260507014056 | 6 | 130 | 0.0 | 0.0 | 0.00 | 0.00 | 0.00 | 78 | 1013.9 |
| 20260507013056 | 6 | 130 | 0.0 | 3.2 | 0.00 | 0.00 | 0.00 | 78 | 1013.9 |
| 20260507012056 | 6 | 130 | 0.0 | 1.6 | 0.00 | 0.00 | 0.00 | 77 | 1013.9 |
| 20260507011056 | 6 | 130 | 1.6 | 3.2 | 0.00 | 0.00 | 0.00 | 77 | 1013.9 |
| 20260507010049 | 6 | 130 | 1.6 | 3.2 | 0.00 | 0.00 | 0.00 | 77 | 1013.9 |
| 20260507005049 | 6 | 130 | 1.6 | 3.2 | 0.00 | 0.00 | 0.00 | 77 | 1013.9 |
| 20260507004049 | 6 | 130 | 1.6 | 4.8 | 0.00 | 0.00 | 0.00 | 77 | 1013.9 |
| 20260507003050 | 6 | 128 | 1.6 | 6.4 | 0.00 | 0.00 | 0.00 | 76 | 1014.0 |
| 20260507002050 | 6 | 124 | 1.6 | 4.8 | 0.00 | 0.00 | 0.00 | 76 | 1014.0 |
| 20260507001049 | 6 | 124 | 1.6 | 4.8 | 0.00 | 0.00 | 0.00 | 75 | 1014.0 |
| 20260506235049 | 6 | 119 | 1.6 | 4.8 | 0.00 | 0.00 | 0.00 | 75 | 1014.1 |
| 20260506234050 | 6 | 121 | 1.6 | 4.8 | 0.00 | 0.00 | 0.00 | 74 | 1014.1 |
| 20260506233044 | 6 | 96 | 1.6 | 6.4 | 0.00 | 0.00 | 0.00 | 74 | 1014.0 |